Weather History for Lihue, HI

Change the Weather History Date:

Sunday, November 11, 2012

  Actual Average Record
Temperature  
Mean Temperature 79 °F 76 °F  
Max Temperature 83 °F 81 °F 84 °F (1957)
Min Temperature 75 °F 71 °F 63 °F (1950)
Degree Days  
Heating Degree Days 0 0  
Month to date heating degree days 0 0  
Since 1 July heating degree days 0 0  
Cooling Degree Days 14 11  
Month to date cooling degree days 140 128  
Year to date cooling degree days 3627 3495  
Growing Degree Days 28 (Base 50)    
Moisture  
Dew Point 65 °F    
Average Humidity 65    
Maximum Humidity 74    
Minimum Humidity 55    
Precipitation  
Precipitation 0.00 in 0.15 in 3.03 in (1955)
Month to date precipitation 0.28 1.67  
Year to date precipitation 36.51 29.06  
Snow  
Snow 0.00 in - - ()
Month to date snowfall 0.0  
Since 1 July snowfall 0.0  
Since 1 September snowfall 0.0  
Snow Depth 0.00 in    
Sea Level Pressure  
Sea Level Pressure 30.06 in    
Wind  
Wind Speed 15 mph (ENE)    
Max Wind Speed 18 mph    
Max Gust Speed 23 mph    
Visibility 10 miles    
Events      
T = Trace of Precipitation, MM = Missing Value Source: NWS Daily Summary

Daily Weather History Graph

Daily Weather History Graph

Search for Another Location

Airport:

Trip Planner

Search our weather history database for the weather conditions in past years. The results will help you decide how hot, cold, wet, or windy it might be!

Date:

Astronomy

Nov. 11, 2012 Rise Set
Actual Time 6:47 AM HST 5:55 PM HST
Civil Twilight 6:23 AM HST 6:18 PM HST
Nautical Twilight 5:56 AM HST 6:45 PM HST
Astronomical Twilight 5:30 AM HST 7:12 PM HST
Moon 4:28 AM HST (11/11) 4:17 PM HST (11/11)
Length of Visible Light 11h 55m
Length of Day
11h 08m
Waning Crescent, 6% of the Moon is Illuminated
Nov 11
Waning Crescent
Nov 13
New
Nov 20
First Quarter
Nov 28
Full
Dec 6
Last Quarter

Hourly Weather History & Observations

Time (HST) Temp. Heat Index Dew Point Humidity Pressure Visibility Wind Dir Wind Speed Gust Speed Precip Events Conditions
12:53 AM 75.9 °F - 66.0 °F 71% 30.06 in 10.0 mi ENE 16.1 mph - N/A   Mostly Cloudy
1:53 AM 75.9 °F - 64.9 °F 69% 30.05 in 10.0 mi ENE 13.8 mph - N/A   Partly Cloudy
2:53 AM 75.9 °F - 66.0 °F 71% 30.04 in 10.0 mi ENE 16.1 mph - N/A   Scattered Clouds
3:53 AM 75.0 °F - 64.9 °F 71% 30.04 in 10.0 mi ENE 17.3 mph - N/A   Partly Cloudy
4:53 AM 75.0 °F - 64.9 °F 71% 30.03 in 10.0 mi ENE 13.8 mph - N/A   Partly Cloudy
5:53 AM 75.9 °F - 64.9 °F 69% 30.04 in 10.0 mi ENE 15.0 mph - N/A   Partly Cloudy
6:53 AM 75.9 °F - 64.9 °F 69% 30.06 in 10.0 mi ENE 16.1 mph - N/A   Clear
7:53 AM 77.0 °F - 64.9 °F 66% 30.08 in 10.0 mi ENE 15.0 mph - N/A   Partly Cloudy
8:53 AM 79.0 °F - 66.0 °F 64% 30.09 in 10.0 mi ENE 12.7 mph - N/A   Mostly Cloudy
9:53 AM 80.1 °F 81.9 °F 64.9 °F 60% 30.09 in 10.0 mi ENE 11.5 mph - N/A   Partly Cloudy
10:53 AM 81.0 °F 82.7 °F 64.9 °F 58% 30.09 in 10.0 mi NE 13.8 mph - N/A   Clear
11:53 AM 82.9 °F 84.6 °F 64.9 °F 54% 30.06 in 10.0 mi ENE 13.8 mph - N/A   Partly Cloudy
12:53 PM 82.0 °F 84.1 °F 66.0 °F 58% 30.05 in 10.0 mi NE 15.0 mph - N/A   Partly Cloudy
1:53 PM 82.0 °F 83.8 °F 64.9 °F 56% 30.03 in 10.0 mi ENE 12.7 mph - N/A   Scattered Clouds
2:53 PM 82.0 °F 84.1 °F 66.0 °F 58% 30.02 in 10.0 mi NE 15.0 mph - N/A   Scattered Clouds
3:53 PM 81.0 °F 82.7 °F 64.9 °F 58% 30.02 in 10.0 mi NE 17.3 mph - N/A   Partly Cloudy
4:53 PM 78.1 °F - 64.9 °F 64% 30.03 in 10.0 mi ENE 16.1 mph - N/A   Partly Cloudy
5:53 PM 77.0 °F - 64.9 °F 66% 30.04 in 10.0 mi NE 13.8 mph - N/A   Scattered Clouds
6:53 PM 77.0 °F - 66.0 °F 69% 30.06 in 10.0 mi ENE 15.0 mph - N/A   Scattered Clouds
7:53 PM 75.9 °F - 64.9 °F 69% 30.08 in 10.0 mi NE 18.4 mph - N/A   Partly Cloudy
8:53 PM 75.9 °F - 64.9 °F 69% 30.09 in 10.0 mi ENE 15.0 mph - N/A   Partly Cloudy
9:53 PM 75.9 °F - 64.9 °F 69% 30.11 in 10.0 mi ENE 15.0 mph - N/A   Scattered Clouds
10:53 PM 75.9 °F - 64.9 °F 69% 30.11 in 10.0 mi ENE 13.8 mph - N/A   Scattered Clouds
11:53 PM 75.9 °F - 66.0 °F 71% 30.11 in 10.0 mi ENE 12.7 mph - N/A   Scattered Clouds